DW3793 Weather Reports


Display with metric or nautical units.
time (UTC)temp
F
wind
direction
speed
MPH
gust
MPH
rain 1hr
in
rain 24hr
in
rain mn
in
humidity
%
barometer
mb
20260510210015 76 300 7.0 17.0 0.00 0.00 0.00 29 1014.3
20260510204514 76 300 7.0 20.0 0.00 0.00 0.00 29 1014.4
20260510203011 77 316 6.0 16.0 0.00 0.00 0.00 28 1014.5
20260510201509 77 299 6.0 15.0 0.00 0.00 0.00 28 1014.4
20260510200004 78 19 2.0 12.0 0.00 0.00 0.00 28 1014.6
20260510194605 78 321 3.0 13.0 0.00 0.00 0.00 28 1014.7
20260510193058 78 299 6.0 13.0 0.00 0.00 0.00 26 1014.9
20260510191607 77 326 11.0 23.0 0.00 0.00 0.00 25 1015.1
20260510190103 77 309 7.0 19.0 0.00 0.00 0.00 27 1015.2
20260510184553 76 320 11.0 24.0 0.00 0.00 0.00 27 1015.2
20260510183057 76 342 10.0 31.0 0.00 0.00 0.00 28 1015.2
20260510181555 76 313 9.0 25.0 0.00 0.00 0.00 27 1015.1
20260510180047 76 292 9.0 22.0 0.00 0.00 0.00 27 1015.2
20260510174542 72 238 2.0 10.0 0.00 0.00 0.00 40 1015.5
20260510173036 67 204 3.0 9.0 0.00 0.00 0.00 52 1016.0
20260510171536 65 121 5.0 12.0 0.00 0.00 0.00 56 1016.2
20260510164505 62 145 1.0 6.0 0.00 0.00 0.00 58 1016.1
20260510163002 60 163 3.0 9.0 0.00 0.00 0.00 58 1016.5
20260510161610 61 136 1.0 3.0 0.00 0.00 0.00 56 1016.6
20260510160134 59 212 0.0 5.0 0.00 0.00 0.00 57 1016.9
20260510154555 57 174 3.0 5.0 0.00 0.00 0.00 59 1017.1
20260510153049 57 142 1.0 4.0 0.00 0.00 0.00 60 1017.2
20260510151546 56 149 0.0 1.0 0.00 0.00 0.00 62 1017.3
20260510150047 54 144 0.0 2.0 0.00 0.00 0.00 68 1017.3
20260510144541 53 134 1.0 5.0 0.00 0.00 0.00 69 1017.3
20260510143040 51 264 0.0 1.0 0.00 0.00 0.00 71 1017.1
20260510141539 47 266 0.0 1.0 0.00 0.00 0.00 76 1017.3
20260510140038 47 266 0.0 1.0 0.00 0.00 0.00 75 1017.3
20260510134536 43 305 0.0 2.0 0.00 0.00 0.00 81 1017.4
20260510133035 44 287 0.0 1.0 0.00 0.00 0.00 78 1017.4
20260510131534 43 314 0.0 2.0 0.00 0.00 0.00 78 1017.3
20260510130034 43 301 1.0 3.0 0.00 0.00 0.00 78 1017.3
20260510123028 44 300 0.0 3.0 0.00 0.00 0.00 76 1017.3
20260510121526 43 306 1.0 3.0 0.00 0.00 0.00 78 1017.4
20260510120023 43 296 0.0 3.0 0.00 0.00 0.00 79 1017.5
20260510114518 43 293 0.0 2.0 0.00 0.00 0.00 78 1017.6
20260510113015 42 309 0.0 3.0 0.00 0.00 0.00 80 1017.8
20260510111510 43 309 1.0 2.0 0.00 0.00 0.00 79 1018.0
20260510110018 45 258 0.0 1.0 0.00 0.00 0.00 74 1017.9
20260510104504 46 270 0.0 3.0 0.00 0.00 0.00 71 1017.6
20260510103002 46 290 1.0 3.0 0.00 0.00 0.00 74 1017.7
20260510101557 46 300 1.0 4.0 0.00 0.00 0.00 73 1017.9
20260510100057 46 302 1.0 3.0 0.00 0.00 0.00 72 1017.9
20260510094556 47 264 1.0 4.0 0.00 0.00 0.00 70 1018.0
20260510093110 47 292 0.0 2.0 0.00 0.00 0.00 71 1017.9
20260510091553 46 317 1.0 3.0 0.00 0.00 0.00 73 1017.9
20260510090104 47 298 1.0 2.0 0.00 0.00 0.00 71 1018.0
20260510084548 48 297 2.0 3.0 0.00 0.00 0.00 70 1018.0
20260510083056 48 300 0.0 3.0 0.00 0.00 0.00 70 1017.9
20260510081558 49 198 0.0 3.0 0.00 0.00 0.00 68 1018.1
20260510080045 51 300 0.0 2.0 0.00 0.00 0.00 62 1017.8
20260510074538 52 279 0.0 2.0 0.00 0.00 0.00 61 1017.8
20260510073034 52 252 0.0 3.0 0.00 0.00 0.00 60 1018.1
20260510071540 53 290 0.0 3.0 0.00 0.00 0.00 60 1018.0
20260510070040 53 289 1.0 6.0 0.00 0.00 0.00 58 1018.0
20260510064535 53 292 2.0 8.0 0.00 0.00 0.00 57 1018.1
20260510063033 54 306 1.0 5.0 0.00 0.00 0.00 56 1018.2
20260510061558 55 317 1.0 5.0 0.00 0.00 0.00 55 1018.0
20260510060057 56 263 1.0 5.0 0.00 0.00 0.00 52 1018.1
20260510054554 56 300 1.0 3.0 0.00 0.00 0.00 54 1018.0
20260510053053 57 299 0.0 0.0 0.00 0.00 0.00 52 1018.1
20260510051557 59 269 1.0 4.0 0.00 0.00 0.00 48 1018.1
20260510050053 58 297 2.0 7.0 0.00 0.00 0.00 49 1018.0
20260510044610 58 299 1.0 4.0 0.00 0.00 0.00 51 1018.1
20260510043049 59 326 3.0 6.0 0.00 0.00 0.00 52 1018.1
20260510041548 61 324 4.0 10.0 0.00 0.00 0.00 49 1018.2
20260510040047 60 325 3.0 9.0 0.00 0.00 0.00 52 1017.8
20260510034546 60 321 4.0 9.0 0.00 0.00 0.00 54 1017.7
20260510033045 60 321 1.0 4.0 0.00 0.00 0.00 59 1017.6
20260510031546 61 292 1.0 7.0 0.00 0.00 0.00 57 1017.4
20260510030043 62 309 2.0 3.0 0.00 0.00 0.00 57 1017.4
20260510024542 66 293 1.0 3.0 0.00 0.00 0.00 55 1017.3
20260510023040 71 116 0.0 0.0 0.00 0.00 0.00 44 1017.2
20260510021541 71 123 0.0 3.0 0.00 0.00 0.00 43 1017.2
20260510020039 72 94 2.0 7.0 0.00 0.00 0.00 42 1017.2
20260510014535 73 111 1.0 7.0 0.00 0.00 0.00 39 1017.2
20260510013033 73 88 1.0 4.0 0.00 0.00 0.00 37 1017.3
20260510011533 73 98 4.0 8.0 0.00 0.00 0.00 33 1017.4
20260510010032 74 144 3.0 9.0 0.00 0.00 0.00 31 1017.4
20260510004501 75 101 2.0 7.0 0.00 0.00 0.00 26 1017.4
20260510003101 75 90 1.0 5.0 0.00 0.00 0.00 22 1017.4
20260510001605 74 89 0.0 5.0 0.00 0.00 0.00 23 1017.4
20260510000056 74 98 1.0 6.0 0.00 0.00 0.00 18 1017.7
20260509234618 74 153 1.0 5.0 0.00 0.00 0.00 20 1017.7
20260509233052 75 122 0.0 4.0 0.00 0.00 0.00 21 1017.8
20260509231552 73 109 2.0 4.0 0.00 0.00 0.00 21 1017.9
20260509230020 74 173 2.0 6.0 0.00 0.00 0.00 23 1018.0
20260509224522 73 309 1.0 3.0 0.00 0.00 0.00 19 1018.1
20260509223015 72 216 2.0 5.0 0.00 0.00 0.00 17 1018.3
20260509221512 72 111 0.0 5.0 0.00 0.00 0.00 20 1018.5
20260509220008 72 171 2.0 7.0 0.00 0.00 0.00 22 1018.7
20260509214506 71 73 3.0 7.0 0.00 0.00 0.00 26 1018.9
20260509213004 71 135 0.0 4.0 0.00 0.00 0.00 25 1019.1
20260509211502 71 128 2.0 6.0 0.00 0.00 0.00 24 1019.2